CARBONITE 1 (CBNT-1)

Last updated on Fri Jul 11 2025 00:02:28 GMT+0000 (Coordinated Universal Time)

1 40718U 15032D 25191.58598537 .00001037 00000+0 13724-3 0 9999 2 40718 97.6438 19.5467 0014298 340.7140 19.3531 14.81867720538725
UTC large
Height (km)
Speed (km/s)
/
Latitude / Longitude
Inclination (degrees)
Orbital Period (minutes)
Azimuth
Elevation
Range (km)
Doppler Factor

Next 0 passes for location: London (51.5072 / 0.1276)

Sorry there are no passes over London.